Theta_e
292 287 285 288 289 290 289 288 288 291 294 291 290 290 293 296 296 296 307 298 300 302 307 308 310 312 313 323 328 336 337 338 335 335 335 334 333 332 334 336 338 339 339 340
290 287 292 294 293 291 290 288 288 292 294 291 291 291 293 294 294 296 298 304 300 301 303 306 307 310 315 318 328 333 336 334 336 337 338 340 339 338 337 338 338 339 340 339
288 291 296 294 293 291 289 288 288 290 293 291 289 288 290 294 295 296 296 298 300 301 301 303 304 308 319 324 330 332 334 335 337 339 342 341 341 341 339 341 341 342 344 345
291 295 295 293 292 292 287 293 293 291 288 283 288 281 286 290 292 295 296 295 298 299 300 300 303 306 314 324 328 332 334 338 340 342 341 338 338 334 335 333 333 334 337 338
291 292 292 291 292 294 291 294 292 291 286 283 284 282 285 289 291 293 294 297 297 298 299 300 300 307 311 316 322 331 336 338 341 342 341 336 327 326 326 325 324 325 329 332
294 297 295 294 296 295 296 289 287 284 283 279 283 282 283 287 290 293 296 300 301 300 300 300 301 307 311 313 318 322 325 323 325 325 325 325 322 321 321 320 319 322 324 326
292 292 295 298 292 293 289 284 278 278 277 278 284 283 285 291 298 298 298 299 299 300 298 297 301 305 310 313 315 318 320 318 319 319 320 319 320 321 318 317 317 319 321 322
287 285 293 297 295 292 290 285 279 276 276 278 286 281 287 299 301 300 300 299 300 299 300 302 305 307 310 313 315 316 316 315 316 316 317 318 319 318 318 319 321 321 321 321
288 289 299 301 301 297 290 287 288 281 281 279 282 286 292 299 299 300 298 298 298 299 300 302 304 305 306 308 311 312 312 311 312 312 314 317 319 318 320 321 321 320 320 322
292 288 297 299 299 299 296 295 286 284 279 277 281 283 284 293 295 297 297 297 296 297 299 301 304 306 306 307 308 309 310 310 311 314 316 318 318 320 320 319 318 318 319 321
295 291 293 297 292 290 292 290 291 288 285 279 279 282 292 294 296 296 298 299 298 296 297 300 302 304 305 307 308 309 311 312 313 314 314 315 316 317 317 317 317 318 317 317
297 294 289 292 297 298 293 289 290 283 282 283 282 286 300 300 300 300 299 302 302 301 298 300 302 303 306 307 307 308 309 310 311 312 311 311 311 314 316 316 315 316 315 315
294 289 283 285 287 292 290 291 291 289 286 282 280 284 299 301 301 303 302 304 304 305 305 303 303 305 305 306 307 307 307 307 308 309 309 309 310 312 313 313 312 312 313 314
296 287 285 282 284 287 285 289 289 286 281 282 284 288 293 297 298 300 300 304 304 305 303 304 302 301 302 304 305 305 305 306 307 307 307 306 307 308 307 308 308 309 311 311
290 284 285 285 288 289 288 288 287 286 286 283 284 287 291 295 297 297 298 301 302 303 302 302 302 300 302 302 304 304 305 305 306 305 305 305 305 306 305 306 306 307 308 309
289 282 283 283 288 287 285 287 288 288 288 287 288 287 294 297 296 296 297 298 298 296 297 299 300 300 301 301 301 301 300 301 302 302 302 304 305 306 306 306 306 307 307 308
285 283 281 280 285 285 280 284 286 286 289 288 284 289 293 293 293 293 292 294 294 294 295 296 296 297 298 297 298 298 298 299 300 301 302 303 303 304 304 304 304 304 305 306
285 283 286 281 282 275 284 291 294 293 294 294 293 293 292 291 291 292 293 292 293 294 295 294 294 295 296 296 297 297 297 298 298 297 298 300 300 300 301 301 300 300 301 301
289 286 283 278 279 282 287 294 293 290 290 296 294 297 296 297 296 295 296 297 295 294 294 294 294 294 294 295 295 294 294 295 295 295 296 297 297 297 297 297 297 298 299 299
290 289 280 283 271 274 288 295 299 298 287 296 297 297 296 293 287 292 296 296 295 294 294 293 293 293 292 293 293 292 292 292 292 293 294 295 296 295 294 295 295 296 297 297
287 287 283 283 280 282 292 296 299 285 283 296 296 292 291 291 292 293 293 293 293 293 293 293 292 291 291 291 291 290 291 290 292 293 294 294 293 292 293 293 293 294 295 296
284 285 283 285 281 275 295 295 288 292 294 297 297 294 292 291 291 292 292 291 291 291 292 292 290 290 291 291 290 289 289 291 292 292 291 291 291 292 292 291 292 293 293 293
284 286 287 287 281 291 295 294 297 297 295 299 298 296 294 291 291 290 289 289 290 291 290 290 289 289 289 289 289 287 289 290 289 288 288 289 289 290 291 290 290 290 292 291
290 295 287 288 289 292 294 296 296 297 296 295 294 293 292 289 288 287 289 288 289 289 288 288 287 286 286 288 288 288 288 288 288 288 288 289 289 289 290 291 291 290 290 291
288 288 286 287 291 294 296 294 294 296 295 293 293 292 289 288 287 287 287 287 287 287 286 286 285 285 285 286 286 287 288 288 287 287 287 288 288 288 289 289 290 290 292 292
288 287 288 285 293 293 292 290 292 291 291 291 288 288 289 288 286 285 284 285 287 287 287 284 284 284 284 286 287 287 288 288 287 286 287 287 287 288 288 288 288 291 291 291
Wind_Speed
5 4 7 10 10 7 5 5 6 6 5 3 6 8 12 10 5 7 18 8 10 10 8 6 7 9 9 4 8 10 12 11 10 8 9 6 6 4 4 4 7 7 6 6
3 7 11 8 6 6 7 7 8 8 2 4 5 6 6 4 6 7 12 16 11 6 9 7 9 7 9 12 13 11 13 11 11 8 6 4 5 4 4 5 6 4 5 7
7 7 6 6 5 5 6 6 6 8 5 0 2 7 5 3 4 6 8 10 7 10 11 10 8 12 8 10 11 13 13 13 12 11 7 3 4 3 2 3 3 2 4 5
6 7 8 5 5 7 5 10 11 6 3 4 2 4 6 4 8 5 6 7 9 10 6 7 11 7 11 14 6 9 11 13 11 13 11 8 6 5 3 4 4 4 4 4
7 4 4 4 7 7 10 2 6 4 4 3 3 4 8 3 5 4 4 2 5 8 8 9 8 2 1 1 5 8 11 11 8 11 10 6 5 3 3 5 7 5 4 5
7 3 3 6 5 7 4 3 6 5 5 2 6 6 6 3 3 8 5 5 8 10 9 8 5 7 5 4 3 6 8 5 6 6 8 8 9 7 5 4 4 4 3 3
3 5 4 6 4 1 3 6 4 4 3 6 0 2 9 6 6 4 8 9 7 7 7 8 4 6 8 10 7 5 8 8 7 8 6 8 8 8 8 6 4 5 3 2
4 5 4 3 7 7 2 7 7 5 4 5 1 4 6 4 4 4 5 6 6 6 5 6 3 2 4 8 7 9 9 8 8 8 7 5 6 4 4 4 3 4 3 3
4 4 2 2 1 5 3 3 3 8 3 2 3 6 7 3 4 6 7 6 7 6 5 7 8 7 8 6 8 9 8 7 7 6 5 4 4 5 5 5 5 4 4 3
3 3 1 3 2 4 2 5 3 3 4 3 4 4 6 3 2 6 8 9 9 8 6 6 8 9 7 5 7 8 6 7 6 7 6 5 6 6 6 6 6 7 6 5
2 2 4 5 3 1 6 2 5 4 4 6 2 6 4 4 5 1 5 6 5 6 7 6 4 6 7 5 6 7 7 8 7 6 5 6 6 6 6 6 6 6 5 6
5 4 3 4 3 1 2 2 4 5 4 1 2 8 2 3 4 5 3 5 4 4 4 4 5 6 2 2 3 4 2 3 2 3 4 5 5 6 6 6 7 6 7 6
3 0 1 3 4 5 5 3 4 4 3 5 5 5 1 3 2 3 4 2 4 2 6 6 5 2 1 1 1 1 3 3 3 2 4 6 7 7 8 8 7 7 8 8
3 3 4 6 2 2 1 3 2 5 3 4 5 7 6 7 7 7 7 6 2 6 3 4 3 3 4 4 4 3 3 3 4 4 3 5 7 5 5 6 7 6 7 8
4 2 3 1 2 2 4 4 5 7 5 7 3 10 10 14 11 8 5 4 4 2 2 1 3 3 3 4 4 5 4 4 3 3 4 7 6 6 6 7 7 8 7 9
4 2 2 3 6 4 4 7 8 8 7 10 14 20 16 16 7 7 7 5 4 5 5 6 5 6 5 5 5 5 6 6 4 5 6 6 6 7 7 8 9 9 10 11
2 5 2 3 3 6 7 6 8 4 4 5 8 9 9 5 3 2 2 6 7 5 5 5 4 3 4 5 4 5 6 6 6 6 6 6 6 6 5 6 6 8 10 10
4 3 3 1 4 4 6 5 3 4 4 3 4 6 5 3 4 6 6 5 5 4 4 4 4 4 4 4 5 5 6 6 7 9 8 8 8 9 9 9 11 10 10 10
3 4 3 3 3 7 2 4 4 5 3 2 1 6 8 6 3 4 4 3 3 4 4 3 4 4 5 5 5 6 6 5 6 9 10 10 10 11 12 13 13 13 13 13
5 3 5 3 3 4 1 3 7 2 3 7 5 4 3 3 2 1 2 3 4 4 2 4 5 4 5 6 5 7 9 8 11 11 11 11 10 11 14 15 14 14 14 15
4 3 7 5 4 7 2 4 4 2 3 5 5 4 4 2 3 4 5 5 4 3 3 3 3 4 5 5 5 10 10 12 12 12 12 11 13 14 13 13 13 13 13 13
3 3 3 4 4 7 3 1 3 2 2 2 1 5 4 4 7 6 6 6 6 6 8 8 9 10 9 7 7 12 13 12 11 11 13 13 12 11 11 14 13 13 13 14
3 5 2 5 6 4 2 3 1 2 3 2 4 4 3 5 5 6 5 6 6 7 8 6 7 12 11 10 8 12 13 12 13 13 13 13 13 12 12 12 12 11 11 11
2 3 3 1 3 5 4 2 1 2 2 3 4 4 4 4 5 5 5 6 7 6 7 8 9 11 14 10 9 10 13 13 13 14 14 12 12 13 12 10 10 10 10 10
4 1 2 4 5 2 1 2 4 1 2 3 4 3 4 4 5 4 8 10 10 9 8 8 9 11 12 12 12 12 12 12 13 13 12 12 11 11 11 11 10 10 11 11
4 5 3 4 2 1 2 0 3 3 4 5 5 5 3 3 5 5 9 10 10 12 12 12 11 11 13 12 12 13 11 11 11 12 10 9 10 9 9 10 11 14 20 23
Wind_Direction
196 150 198 212 198 217 287 260 268 260 191 250 194 241 263 259 185 250 230 199 258 229 220 269 224 218 187 190 181 189 182 181 158 160 162 160 193 172 205 182 211 195 185 212
125 227 223 217 197 203 245 272 273 272 303 137 300 268 257 252 242 213 209 244 215 231 277 212 229 221 218 200 194 180 187 173 173 171 162 159 172 189 200 189 202 209 175 209
187 226 141 170 224 202 225 221 251 243 337 282 358 327 329 317 342 267 253 240 214 206 223 245 208 207 214 211 194 183 178 171 173 163 141 107 102 76 155 132 126 180 164 182
219 239 230 233 234 174 245 214 236 242 90 244 94 250 296 291 301 281 311 259 252 208 231 225 231 218 189 215 174 150 154 163 171 168 165 163 180 153 151 132 133 140 130 129
233 200 172 171 217 160 229 167 236 195 163 66 314 86 265 303 275 281 310 317 287 273 234 244 222 242 330 295 178 162 160 173 169 174 187 168 110 91 111 114 119 121 118 119
219 238 215 223 238 199 273 116 49 50 98 99 241 149 283 247 319 303 305 330 321 314 307 272 194 165 158 114 111 127 122 98 109 111 112 118 127 124 120 108 106 115 114 87
289 250 238 217 269 261 97 62 343 355 20 215 81 67 236 306 321 294 307 320 329 324 320 305 223 195 166 154 138 112 113 104 106 106 113 127 132 132 131 148 157 146 138 137
193 317 193 195 181 194 210 152 158 210 195 255 264 229 249 250 280 342 326 314 338 12 34 38 45 161 176 133 126 121 120 115 117 118 111 97 117 132 139 146 128 124 146 155
160 265 338 45 304 140 180 205 174 106 21 70 266 299 324 38 33 357 2 20 19 31 66 79 72 75 74 85 106 111 97 90 93 104 106 116 131 136 146 137 127 143 158 174
315 220 208 324 350 46 127 153 77 5 149 228 294 282 240 255 197 3 2 354 349 350 20 71 90 93 85 91 101 104 113 135 155 152 159 164 166 165 158 147 161 178 185 187
28 86 302 27 28 40 356 32 65 109 128 162 214 258 228 229 148 102 341 352 17 19 354 357 72 100 116 115 126 140 149 161 176 175 153 147 160 164 162 180 191 191 186 191
333 108 234 299 309 99 55 89 114 126 235 223 169 251 164 155 153 170 227 302 326 14 7 349 355 353 5 98 113 120 112 172 164 132 151 184 190 193 195 204 206 194 205 206
189 289 53 10 6 15 53 32 100 95 71 207 155 255 311 283 242 248 271 273 317 359 357 351 312 297 340 8 54 21 26 341 317 270 224 211 209 205 215 220 216 208 212 216
101 105 155 186 123 160 174 181 116 116 134 251 225 292 299 291 278 270 270 306 243 279 156 249 293 334 356 9 360 342 336 323 306 291 268 268 264 276 273 264 255 245 233 233
83 119 24 353 303 289 259 247 228 203 204 211 201 236 256 257 256 252 257 259 269 333 357 296 163 100 87 74 51 30 30 9 339 299 280 266 272 260 259 265 266 266 257 246
9 147 76 311 288 295 269 257 247 241 234 250 258 267 251 267 255 265 283 251 171 129 90 77 77 77 54 29 16 7 356 347 339 318 307 309 311 304 287 279 276 272 267 263
119 133 105 252 354 343 303 241 240 209 204 246 252 254 264 273 312 322 87 130 125 97 78 65 55 34 21 18 10 350 334 336 350 342 333 330 320 308 298 295 288 280 276 272
142 141 118 231 19 241 247 290 183 159 167 13 2 2 9 115 84 61 37 79 71 51 30 24 25 10 359 14 19 354 352 342 333 324 316 309 304 299 296 293 286 278 273 267
167 118 144 181 230 293 335 38 21 7 302 343 291 20 356 347 339 61 25 35 24 3 347 355 358 5 22 13 348 332 319 307 300 295 288 286 284 287 288 285 285 281 277 275
146 122 122 151 144 237 193 348 340 55 251 15 317 262 255 298 285 284 44 346 337 341 360 27 10 354 345 321 315 309 306 294 291 290 292 293 293 292 289 285 284 283 280 276
155 186 212 202 216 282 208 259 296 225 226 336 347 327 338 315 245 311 331 333 340 354 40 345 304 288 277 291 303 306 301 291 298 300 298 295 293 287 281 280 279 279 276 274
175 189 197 222 206 270 201 283 205 191 220 230 280 291 300 311 319 310 321 341 0 350 339 338 326 316 313 305 301 297 292 299 298 293 290 289 286 282 283 278 277 278 279 278
202 194 184 214 222 244 217 220 241 172 224 284 276 315 314 297 288 317 317 334 322 313 309 310 300 303 305 304 295 292 296 302 300 296 290 290 287 284 282 286 284 280 272 269
253 156 217 10 278 248 263 298 281 278 267 356 355 320 322 302 323 314 313 305 299 292 298 305 299 296 297 303 290 286 298 294 290 295 297 296 293 293 284 274 271 271 271 275
218 346 229 266 291 350 1 17 309 289 64 348 344 356 350 339 333 316 314 310 306 301 305 297 288 294 296 303 298 293 296 305 299 294 292 290 286 286 287 277 274 271 266 265
198 198 172 247 323 248 254 149 13 44 6 1 353 336 27 7 312 316 316 306 296 304 307 308 299 298 298 295 302 305 298 292 297 294 293 290 292 288 284 285 287 260 257 262